TimeCST,TemperatureF,Dew PointF,Humidity,Sea Level PressureIn,VisibilityMPH,Wind Direction,Wind SpeedMPH,Gust SpeedMPH,PrecipitationIn,Events,Conditions,WindDirDegrees,DateUTC
12:49 AM,28.4,24.8,86,30.03,9.0,SSE,19.6,27.6,N/A,,Overcast,160,2013-02-09 06:49:00
12:56 AM,27.0,24.1,89,30.10,9.0,SSE,15.0,25.3,N/A,,Mostly Cloudy,160,2013-02-09 06:56:00
1:10 AM,26.6,24.8,93,30.02,9.0,SSE,16.1,-,N/A,,Scattered Clouds,160,2013-02-09 07:10:00
1:56 AM,28.0,24.1,85,30.07,9.0,SSE,18.4,27.6,N/A,,Clear,160,2013-02-09 07:56:00
2:13 AM,26.6,24.8,93,30.01,8.0,SSE,17.3,23.0,N/A,,Mostly Cloudy,160,2013-02-09 08:13:00
2:34 AM,26.6,24.8,93,30.00,6.0,SSE,15.0,26.5,N/A,,Overcast,160,2013-02-09 08:34:00
2:56 AM,27.0,25.0,92,30.05,6.0,SSE,16.1,24.2,N/A,,Overcast,160,2013-02-09 08:56:00
3:56 AM,28.0,26.1,92,30.01,5.0,South,19.6,26.5,N/A,,Overcast,170,2013-02-09 09:56:00
4:56 AM,28.9,26.1,89,30.00,5.0,South,17.3,24.2,N/A,,Overcast,170,2013-02-09 10:56:00
5:56 AM,28.9,26.1,89,30.01,5.0,South,15.0,-,N/A,,Overcast,170,2013-02-09 11:56:00
6:56 AM,28.9,26.1,89,30.01,5.0,South,13.8,-,N/A,,Overcast,170,2013-02-09 12:56:00
7:56 AM,28.9,27.0,92,30.01,5.0,South,15.0,19.6,N/A,,Overcast,170,2013-02-09 13:56:00
8:56 AM,30.0,27.0,88,30.00,4.0,South,10.4,21.9,N/A,,Overcast,170,2013-02-09 14:56:00
9:56 AM,30.9,28.0,89,29.99,4.0,South,12.7,-,N/A,,Overcast,170,2013-02-09 15:56:00
10:56 AM,32.0,28.9,88,29.97,5.0,South,13.8,20.7,N/A,,Overcast,170,2013-02-09 16:56:00
11:05 AM,33.8,28.4,81,29.91,5.0,South,17.3,-,N/A,,Overcast,170,2013-02-09 17:05:00
11:56 AM,34.0,28.9,82,29.94,5.0,South,12.7,-,N/A,,Haze,170,2013-02-09 17:56:00
12:54 PM,35.6,30.2,81,29.85,7.0,South,11.5,-,N/A,,Overcast,170,2013-02-09 18:54:00
12:56 PM,36.0,30.0,79,29.90,7.0,South,13.8,-,N/A,,Overcast,170,2013-02-09 18:56:00
1:56 PM,41.0,30.9,67,29.86,8.0,South,11.5,20.7,N/A,,Overcast,170,2013-02-09 19:56:00
2:31 PM,41.0,30.2,65,29.79,9.0,South,12.7,-,N/A,,Scattered Clouds,170,2013-02-09 20:31:00
2:56 PM,43.0,32.0,65,29.82,9.0,SSE,9.2,-,N/A,,Scattered Clouds,160,2013-02-09 20:56:00
3:56 PM,43.0,32.0,65,29.81,10.0,SE,12.7,-,N/A,,Clear,140,2013-02-09 21:56:00
4:56 PM,41.0,32.0,70,29.77,10.0,SE,10.4,-,N/A,,Clear,130,2013-02-09 22:56:00
5:56 PM,39.9,32.0,73,29.77,10.0,ESE,9.2,-,N/A,,Clear,120,2013-02-09 23:56:00
6:56 PM,39.9,33.1,77,29.78,10.0,SE,10.4,-,N/A,,Mostly Cloudy,130,2013-02-10 00:56:00
7:56 PM,39.9,32.0,73,29.78,10.0,SE,10.4,-,N/A,,Overcast,140,2013-02-10 01:56:00
8:56 PM,37.0,33.1,86,29.78,9.0,ESE,12.7,-,0.02,Rain,Light Rain,120,2013-02-10 02:56:00
9:56 PM,35.1,30.9,85,29.77,9.0,ESE,13.8,-,0.00,,Overcast,120,2013-02-10 03:56:00
10:56 PM,34.0,30.9,89,29.73,5.0,ESE,13.8,20.7,0.00,Rain,Light Rain,120,2013-02-10 04:56:00
11:47 PM,33.8,30.2,87,29.68,7.0,SE,12.7,-,0.02,Rain,Light Rain,130,2013-02-10 05:47:00
11:56 PM,33.1,30.9,92,29.72,5.0,ESE,12.7,-,0.02,Rain,Light Rain,120,2013-02-10 05:56:00